Regional Weather Roundup
Issued by NWS

Home | Current Version | Previous Version | Text Only | Print | Product List | Glossary Off
Versions: 1 2 3 4 5 6 7 8 9 10 11 12 13 14 15 16 17 18 19 20 21 22 23 24 25 26 27

000
ASUS45 KBOU 311807
RWRCO

WEATHER ROUNDUP FOR COLORADO
NATIONAL WEATHER SERVICE DENVER/BOULDER CO
1200 PM MDT WED AUG 31 2016

NOTE: "FAIR" INDICATES FEW OR NO CLOUDS BELOW 12000 FEET WITH NO
SIGNIFICANT WEATHER AND/OR OBSTRUCTIONS TO VISIBILITY.

COZ001>005-013-030-031-311900-
...NORTHWEST COLORADO...

CITY           SKY/WX    TMP DP  RH WIND       PRES   REMARKS
CRAIG          FAIR      81  35  19 W6        30.27F
HAYDEN         FAIR      75  37  25 CALM      30.30F
MEEKER         FAIR      80  40  23 S8        30.28F
MOUNT WERNER   NOT AVBL
STEAMBOAT SPGS FAIR      74  40  29 W3        30.32F
WALDEN         FAIR      70  37  30 S3        30.43F
$$

COZ006>008-011-311900-
...WEST CENTRAL VALLEYS...

CITY           SKY/WX    TMP DP  RH WIND       PRES   REMARKS
GRAND JUNCTION FAIR      82  44  26 VRB5      30.20F
MONTROSE       FAIR      79  44  28 CALM      30.27F
EAGLE          SUNNY     73  41  31 CALM      30.34F
RIFLE          FAIR      78  45  30 NE5       30.25F
DELTA          FAIR      82  44  25 S6        30.23F
NUCLA          FAIR     N/A N/A N/A N3        30.33F
$$

COZ017>023-064>068-311900-
...SOUTHWEST COLORADO...

CITY           SKY/WX    TMP DP  RH WIND       PRES   REMARKS
DURANGO        FAIR      73  46  38 MISG      30.35F
CORTEZ         FAIR      77  51  40 VRB7      30.30F
PAGOSA SPRINGS FAIR      70  43  37 S5        30.42F
TELLURIDE      CLOUDY    67  43  41 CALM      30.51F
WOLF CREEK PAS PTSUNNY   50  41  71 W5        30.71S
$$

COZ009-010-012-014-032>034-037-058>063-311900-
...CENTRAL COLORADO...

CITY           SKY/WX    TMP DP  RH WIND       PRES   REMARKS
ASPEN          FAIR      73  42  32 N7        30.39F
BUENA VISTA    FAIR      65  46  50 CALM      30.42F
COPPER MTN     FAIR      59  30  33 W15G22    30.69S
BERTHOUD PASS  FAIR      50  36  57 N9        30.72S
COTTONWOOD PAS FAIR      64  41  42 E6        30.54F
GUNNISON       FAIR      66  43  42 W3        30.44F
KREMMLING      FAIR      70  36  28 CALM      30.39F
LEADVILLE      PTSUNNY   61  35  37 N8        30.52F
MONARCH PASS   PTSUNNY   50  41  71 W15G22    30.79S
SALIDA         FAIR      69  46  43 SE3       30.46F
SUNLIGHT       FAIR      61  43  51 CALM      30.64S
WILKERSON PASS FAIR      54  41  62 CALM      30.67S
$$

COZ069>075-311900-
...SAN LUIS VALLEY/SANGRE DE CRISTO MOUNTAINS...

CITY           SKY/WX    TMP DP  RH WIND       PRES   REMARKS
ALAMOSA        FAIR      69  46  43 VRB5      30.40F
LA VETA PASS   PTSUNNY   55  45  67 MISG      30.58S
SAGUACHE       FAIR      68  46  45 SE8       30.43F
$$

COZ035-036-038>040-311900-
...NORTHERN COLORADO FRONT RANGE...

CITY           SKY/WX    TMP DP  RH WIND       PRES   REMARKS
DENVER INTL AP FAIR      68  54  60 SE5       30.31F
DMNS CITY PARK   N/A     68  55  63 N6G18     30.31S
AURORA         MOSUNNY   69  56  62 VRB5      30.32F
FRONT RANGE AP MOSUNNY   72  55  56 NE7       30.32F
ERIE MUNI ARPT CLOUDY    65  56  72 E5        30.31F
BOULDER MUN AP FAIR      68  55  64 NE5       30.30F
CENTENNIAL     FAIR      69  51  52 CALM      30.32F
BROOMFIELD     PTSUNNY   66  57  72 N6        30.32F
FORT COLLINS   FAIR      70  55  60 E6        30.28F
LONGMONT       CLOUDY    69  58  68 E5        30.32F HAZE
$$

COZ041-046-047-076>085-087-088-311900-
...PIKES PEAK/PALMER DIVIDE AND SOUTHERN FOOTHILLS...

CITY           SKY/WX    TMP DP  RH WIND       PRES   REMARKS
COLO. SPRINGS  FAIR      70  52  52 VRB3      30.35F
A. F. ACADEMY  FAIR      69  51  52 SE8       30.34F
SCHRIEVER AFB  NOT AVBL
ELLICOTT       NOT AVBL
FALCON         FAIR      69  52  53 S7        30.39F
FORT CARSON    FAIR      71  55  56 SE9       30.31F
LIMON          FAIR      74  52  46 SE9       30.30F
MONUMENT HILL  PTSUNNY   68  50  52 CALM      30.39F
TRINIDAD       FAIR      75  48  38 CALM      30.31F
$$

COZ042>045-048>051-090-091-311900-
...NORTHEAST COLORADO...

CITY           SKY/WX    TMP DP  RH WIND       PRES   REMARKS
GREELEY ARPT   PTSUNNY   72  57  60 SE7       30.29F
AKRON          PTSUNNY   73  56  54 E9        30.28F
BURLINGTON     TSTM      75  57  53 SE8       30.26F
WRAY           CLOUDY    72  63  73 E14       30.27S
STERLING       FAIR      75  61  60 SE5       30.24F
HOLYOKE        FAIR      73  64  73 S7        30.27F
FORT MORGAN    FAIR      71  57  60 SE7       30.29F
$$

COZ086-089-092>099-311900-
...SOUTHEAST COLORADO...

CITY           SKY/WX    TMP DP  RH WIND       PRES   REMARKS
PUEBLO         FAIR      78  54  43 VRB5      30.26F
LA JUNTA       FAIR      77  57  50 VRB3      30.24F
LAMAR          FAIR      83  57  41 S8        30.20F
SPRINGFIELD      N/A     72  60  66 SE8       30.25F
$$




USA.gov is the U.S. government's official web portal to all federal, state and local government web resources and services.